Yakima, WA
on Thursday, February 7, 2013

Thursday
Previous Day Next Day
Daily Summary
 ActualAverageRecord
Temperature
Mean Temperature °F 35°F  
Max Temperature 53°F 44°F 60°F (1953)
Min Temperature 28°F 25°F -4°F (2014)
Degree Days
Heating Degree Days 24 30  
Month to date heating degree days 175 215  
Since 1 July heating degree days 3444 3933  
Cooling Degree Days 0 0  
Month to date cooling degree days 0 0  
Year to date cooling degree days 0 0  
Moisture
Dew Point 26°F   
Average Humidity 57    
Maximum Humidity 85    
Minimum Humidity 28    
Precipitation
Precipitation 0.00 in 0.03 in 0.79 in (2002)
Month to date precipitation T 0.20  
Year to date precipitation 0.10 1.34  
Snow
Snow 0.00 in 0.10 in 1.70 in (1985)
Month to date snowfall 0.0 0.8  
Year to date snowfall 1.1 6.1  
Since 1 July snowfall 15.3 19.1  
Snow Depth 0.00 in   
Wind
Wind Speed 3 mph   
Max Wind Speed 9 mph   
Max Gust Speed 14 mph   
Visibility 10 miles   
Events     

Key: T is trace of precipitation, MM is missing value
Source: NWS Daily Summary
Time(PST)TemperatureDew PointHumidity Pressure Visibility Wind DirectionWind SpeedGust SpeedPrecipitationEvents Conditions
12:53 AM 37.0°F 30.0°F 76% 29.89 in 10.0 miles West 6.9 mph - N/A   Mostly Cloudy
1:53 AM 37.0°F 30.0°F 76% 29.89 in 10.0 miles WNW 6.9 mph - N/A   Scattered Clouds
2:53 AM 36.0°F 30.9°F 82% 29.89 in 10.0 miles Calm Calm - N/A   Overcast
3:53 AM 34.0°F 28.9°F 82% 29.88 in 10.0 miles Calm Calm - N/A   Partly Cloudy
4:53 AM 36.0°F 30.0°F 79% 29.89 in 10.0 miles Variable 4.6 mph - N/A   Mostly Cloudy
5:53 AM 33.1°F 28.9°F 85% 29.91 in 10.0 miles WSW 3.5 mph - N/A   Mostly Cloudy
6:53 AM 30.0°F 26.1°F 85% 29.94 in 10.0 miles West 3.5 mph - N/A   Clear
7:53 AM 30.0°F 26.1°F 85% 29.96 in 10.0 miles Calm Calm - N/A   Clear
8:53 AM 37.9°F 32.0°F 79% 29.98 in 10.0 miles West 4.6 mph - N/A   Clear
9:53 AM 44.1°F 32.0°F 63% 29.98 in 10.0 miles Calm Calm - N/A   Clear
10:53 AM 46.0°F 30.9°F 56% 29.99 in 10.0 miles Calm Calm - N/A   Clear
11:53 AM 50.0°F 28.9°F 44% 29.96 in 10.0 miles Calm Calm - N/A   Clear
12:53 PM 51.1°F 26.1°F 38% 29.96 in 10.0 miles Calm Calm - N/A   Scattered Clouds
1:53 PM 52.0°F 23.0°F 32% 29.95 in 10.0 miles West 5.8 mph - N/A   Scattered Clouds
2:53 PM 51.1°F 19.9°F 29% 29.95 in 10.0 miles Calm Calm - N/A   Mostly Cloudy
3:53 PM 51.1°F 21.0°F 31% 29.96 in 10.0 miles SW 10.4 mph - N/A   Mostly Cloudy
4:53 PM 46.0°F 24.1°F 42% 29.98 in 10.0 miles West 4.6 mph - N/A   Mostly Cloudy
5:53 PM 44.1°F 25.0°F 47% 30.01 in 10.0 miles NW 8.1 mph - N/A   Mostly Cloudy
6:53 PM 44.1°F 24.1°F 45% 30.04 in 10.0 miles Calm Calm - N/A   Overcast
7:53 PM 39.9°F 23.0°F 51% 30.06 in 10.0 miles NNW 5.8 mph - N/A   Clear
8:53 PM 37.0°F 21.9°F 54% 30.07 in 10.0 miles Calm Calm - N/A   Clear
9:53 PM 32.0°F 21.9°F 66% 30.09 in 10.0 miles Calm Calm - N/A   Clear
10:53 PM 30.0°F 21.9°F 72% 30.10 in 10.0 miles West 4.6 mph - N/A   Clear
11:53 PM 32.0°F 21.0°F 64% 30.10 in 10.0 miles West 4.6 mph - N/A   Clear
Moon Phase
Feb. 07 Feb. 10 Feb. 17 Feb. 25 Mar. 04
Sunrise:07:17 AM (PST) Moon Rise:05:07 AM (PST)2/7
Sunset:05:15 PM (PST) Moon Set:02:41 PM (PST)2/7

Copyright © 2014 The Weather Underground, Inc.